Time,TemperatureF,DewpointF,PressureIn,WindDirection,WindDirectionDegrees,WindSpeedMPH,WindSpeedGustMPH,Humidity,HourlyPrecipIn,Conditions,Clouds,dailyrainin,SoftwareType,DateUTC
2013-03-19 00:00:00,31.7,17.3,30.05,SW,225,1.6,1.6,55,0.00,,,0.00,WUHU216HW,2013-03-19 05:00:00,
2013-03-19 00:05:00,31.7,17.3,30.05,SW,225,1.6,1.6,55,0.00,,,0.00,WUHU216HW,2013-03-19 05:05:00,
2013-03-19 00:30:00,30.2,16.7,30.04,SW,225,0.7,0.7,57,0.00,,,0.00,WUHU216HW,2013-03-19 05:30:00,
2013-03-19 00:35:00,30.2,16.7,30.04,SW,225,0.7,0.7,57,0.00,,,0.00,WUHU216HW,2013-03-19 05:35:00,
2013-03-19 01:00:00,28.8,16.3,30.07,SSW,203,1.1,1.1,59,0.00,,,0.00,WUHU216HW,2013-03-19 06:00:00,
2013-03-19 01:05:00,28.8,16.3,30.07,SSW,203,1.1,1.1,59,0.00,,,0.00,WUHU216HW,2013-03-19 06:05:00,
2013-03-19 01:30:00,27.5,15.8,30.09,SSW,203,1.8,1.8,61,0.00,,,0.00,WUHU216HW,2013-03-19 06:30:00,
2013-03-19 01:35:00,27.5,15.8,30.09,SSW,203,1.8,1.8,61,0.00,,,0.00,WUHU216HW,2013-03-19 06:35:00,
2013-03-19 02:00:00,27.0,15.7,30.08,SW,225,1.8,1.8,62,0.00,,,0.00,WUHU216HW,2013-03-19 07:00:00,
2013-03-19 02:05:00,27.0,15.7,30.08,SW,225,1.8,1.8,62,0.00,,,0.00,WUHU216HW,2013-03-19 07:05:00,
2013-03-19 02:30:00,25.7,14.9,30.08,SSW,203,1.1,1.1,63,0.00,,,0.00,WUHU216HW,2013-03-19 07:30:00,
2013-03-19 02:35:00,25.7,14.9,30.08,SSW,203,1.1,1.1,63,0.00,,,0.00,WUHU216HW,2013-03-19 07:35:00,
2013-03-19 03:00:00,25.4,15.2,30.08,East,90,0.4,0.4,65,0.00,,,0.00,WUHU216HW,2013-03-19 08:00:00,
2013-03-19 03:05:00,25.4,15.2,30.08,East,90,0.4,0.4,65,0.00,,,0.00,WUHU216HW,2013-03-19 08:05:00,
2013-03-19 03:30:00,25.7,15.8,30.09,SW,225,0.9,0.9,66,0.00,,,0.00,WUHU216HW,2013-03-19 08:30:00,
2013-03-19 03:35:00,25.7,15.8,30.09,SW,225,0.9,0.9,66,0.00,,,0.00,WUHU216HW,2013-03-19 08:35:00,
2013-03-19 04:00:00,25.9,16.4,30.09,SW,225,0.4,0.4,67,0.00,,,0.00,WUHU216HW,2013-03-19 09:00:00,
2013-03-19 04:05:00,25.9,16.4,30.09,SW,225,0.4,0.4,67,0.00,,,0.00,WUHU216HW,2013-03-19 09:05:00,
2013-03-19 04:30:00,26.6,17.8,30.08,SW,225,0.0,0.0,69,0.00,,,0.00,WUHU216HW,2013-03-19 09:30:00,
2013-03-19 04:35:00,26.6,17.8,30.08,SW,225,0.0,0.0,69,0.00,,,0.00,WUHU216HW,2013-03-19 09:35:00,
2013-03-19 05:00:00,27.2,18.4,30.08,SW,225,0.7,0.7,69,0.00,,,0.00,WUHU216HW,2013-03-19 10:00:00,
2013-03-19 05:05:00,27.2,18.4,30.08,SW,225,0.7,0.7,69,0.00,,,0.00,WUHU216HW,2013-03-19 10:05:00,
2013-03-19 05:30:00,27.2,18.7,30.09,SW,225,0.4,0.4,70,0.00,,,0.00,WUHU216HW,2013-03-19 10:30:00,
2013-03-19 05:35:00,27.2,18.7,30.09,SW,225,0.4,0.4,70,0.00,,,0.00,WUHU216HW,2013-03-19 10:35:00,
2013-03-19 06:00:00,27.9,19.4,30.11,SSE,158,1.1,1.1,70,0.00,,,0.00,WUHU216HW,2013-03-19 11:00:00,
2013-03-19 06:05:00,27.9,19.4,30.11,SSE,158,1.1,1.1,70,0.00,,,0.00,WUHU216HW,2013-03-19 11:05:00,
2013-03-19 06:30:00,28.8,20.6,30.11,SSW,203,0.0,0.0,71,0.00,,,0.00,WUHU216HW,2013-03-19 11:30:00,
2013-03-19 06:35:00,28.8,20.6,30.11,SSW,203,0.0,0.0,71,0.00,,,0.00,WUHU216HW,2013-03-19 11:35:00,
2013-03-19 06:58:00,29.3,21.4,30.11,SW,225,0.0,0.0,72,0.00,,,0.00,WUHU216HW,2013-03-19 11:58:00,
2013-03-19 07:03:00,29.5,21.6,30.12,SW,225,0.0,0.4,72,0.00,,,0.00,WUHU216HW,2013-03-19 12:03:00,
2013-03-19 07:08:00,29.7,21.8,30.12,SW,225,0.0,0.4,72,0.00,,,0.00,WUHU216HW,2013-03-19 12:08:00,
2013-03-19 07:13:00,29.9,22.0,30.12,SW,225,0.9,0.9,72,0.00,,,0.00,WUHU216HW,2013-03-19 12:13:00,
2013-03-19 07:18:00,29.9,22.0,30.12,SW,225,0.0,0.9,72,0.00,,,0.00,WUHU216HW,2013-03-19 12:18:00,
2013-03-19 07:23:00,29.9,22.0,30.13,NW,315,0.0,0.7,72,0.00,,,0.00,WUHU216HW,2013-03-19 12:23:00,
2013-03-19 07:28:00,30.1,22.1,30.14,NW,315,0.0,0.0,72,0.00,,,0.00,WUHU216HW,2013-03-19 12:28:00,
2013-03-19 07:33:00,30.2,22.2,30.14,NW,315,0.0,0.0,72,0.00,,,0.00,WUHU216HW,2013-03-19 12:33:00,
2013-03-19 07:38:00,30.2,22.2,30.14,SW,225,0.0,0.0,72,0.00,,,0.00,WUHU216HW,2013-03-19 12:38:00,
2013-03-19 07:43:00,30.4,22.4,30.14,SW,225,0.0,1.3,72,0.00,,,0.00,WUHU216HW,2013-03-19 12:43:00,
2013-03-19 07:48:00,30.6,22.6,30.14,WSW,248,0.4,2.5,72,0.00,,,0.00,WUHU216HW,2013-03-19 12:48:00,
2013-03-19 07:53:00,30.8,22.8,30.14,NE,45,0.0,2.5,72,0.00,,,0.00,WUHU216HW,2013-03-19 12:53:00,
2013-03-19 07:58:00,30.8,22.8,30.14,SSE,158,0.0,1.6,72,0.00,,,0.00,WUHU216HW,2013-03-19 12:58:00,
2013-03-19 08:03:00,31.0,22.7,30.15,NNE,23,0.0,1.6,71,0.00,,,0.00,WUHU216HW,2013-03-19 13:03:00,
2013-03-19 08:08:00,31.1,23.1,30.15,East,90,0.0,1.6,72,0.00,,,0.00,WUHU216HW,2013-03-19 13:08:00,
2013-03-19 08:13:00,31.3,23.3,30.15,East,90,0.0,0.4,72,0.00,,,0.00,WUHU216HW,2013-03-19 13:13:00,
2013-03-19 08:18:00,31.3,23.3,30.15,SW,225,0.4,1.1,72,0.00,,,0.00,WUHU216HW,2013-03-19 13:18:00,
2013-03-19 08:23:00,31.5,23.5,30.16,WNW,293,0.0,1.1,72,0.00,,,0.00,WUHU216HW,2013-03-19 13:23:00,
2013-03-19 08:28:00,31.7,23.7,30.16,WNW,293,0.0,0.7,72,0.00,,,0.00,WUHU216HW,2013-03-19 13:28:00,
2013-03-19 08:33:00,31.9,23.6,30.15,WNW,293,0.0,0.0,71,0.00,,,0.00,WUHU216HW,2013-03-19 13:33:00,
2013-03-19 08:38:00,32.0,24.0,30.16,WNW,293,0.0,0.0,72,0.00,,,0.00,WUHU216HW,2013-03-19 13:38:00,
2013-03-19 08:43:00,32.2,23.9,30.16,SSW,203,1.1,1.1,71,0.00,,,0.00,WUHU216HW,2013-03-19 13:43:00,
2013-03-19 08:49:00,32.6,24.2,30.16,SSW,203,0.4,1.3,71,0.00,,,0.00,WUHU216HW,2013-03-19 13:49:00,
2013-03-19 08:54:00,32.8,24.4,30.16,SSW,203,0.0,1.3,71,0.00,,,0.00,WUHU216HW,2013-03-19 13:54:00,
2013-03-19 08:59:00,33.1,24.4,30.16,SSW,203,0.2,1.1,70,0.00,,,0.00,WUHU216HW,2013-03-19 13:59:00,
2013-03-19 09:04:00,33.3,24.6,30.16,SSW,203,0.0,1.1,70,0.00,,,0.00,WUHU216HW,2013-03-19 14:04:00,
2013-03-19 09:09:00,33.7,24.8,30.17,ENE,68,0.7,1.3,70,0.00,,,0.00,WUHU216HW,2013-03-19 14:09:00,
2013-03-19 09:14:00,33.8,25.0,30.18,ENE,68,0.9,1.3,70,0.00,,,0.00,WUHU216HW,2013-03-19 14:14:00,
2013-03-19 09:19:00,34.2,25.0,30.17,East,90,0.7,0.9,69,0.00,,,0.00,WUHU216HW,2013-03-19 14:19:00,
2013-03-19 09:24:00,34.4,25.2,30.18,SSE,158,0.0,0.9,69,0.00,,,0.00,WUHU216HW,2013-03-19 14:24:00,
2013-03-19 09:29:00,34.6,25.0,30.18,ENE,68,0.0,0.9,68,0.00,,,0.00,WUHU216HW,2013-03-19 14:29:00,
2013-03-19 09:34:00,34.9,25.0,30.18,SE,135,0.9,0.9,67,0.00,,,0.00,WUHU216HW,2013-03-19 14:34:00,
2013-03-19 09:39:00,35.1,25.2,30.17,SSE,158,0.9,2.0,67,0.00,,,0.00,WUHU216HW,2013-03-19 14:39:00,
2013-03-19 09:44:00,35.5,25.6,30.17,South,180,1.8,2.7,67,0.00,,,0.00,WUHU216HW,2013-03-19 14:44:00,
2013-03-19 09:49:00,35.6,25.7,30.17,SSE,158,1.1,2.7,67,0.00,,,0.00,WUHU216HW,2013-03-19 14:49:00,
2013-03-19 09:54:00,35.8,25.6,30.18,SE,135,0.0,1.8,66,0.00,,,0.00,WUHU216HW,2013-03-19 14:54:00,
2013-03-19 09:59:00,36.2,25.9,30.19,SSW,203,0.4,1.8,66,0.00,,,0.00,WUHU216HW,2013-03-19 14:59:00,
2013-03-19 10:04:00,36.4,25.8,30.19,SSE,158,2.2,2.5,65,0.00,,,0.00,WUHU216HW,2013-03-19 15:04:00,
2013-03-19 10:09:00,36.5,25.9,30.19,SSE,158,0.0,2.5,65,0.00,,,0.00,WUHU216HW,2013-03-19 15:09:00,
2013-03-19 10:14:00,36.9,25.8,30.20,SE,135,0.9,2.0,64,0.00,,,0.00,WUHU216HW,2013-03-19 15:14:00,
2013-03-19 10:19:00,37.1,26.0,30.20,South,180,0.7,2.0,64,0.00,,,0.00,WUHU216HW,2013-03-19 15:19:00,
2013-03-19 10:24:00,37.3,25.8,30.20,SW,225,0.7,2.0,63,0.00,,,0.00,WUHU216HW,2013-03-19 15:24:00,
2013-03-19 10:29:00,37.6,25.7,30.20,WSW,248,1.1,1.8,62,0.00,,,0.00,WUHU216HW,2013-03-19 15:29:00,
2013-03-19 10:34:00,37.8,25.6,30.20,WSW,248,0.4,1.8,61,0.00,,,0.00,WUHU216HW,2013-03-19 15:34:00,
2013-03-19 10:39:00,38.0,25.8,30.20,SSW,203,1.1,1.1,61,0.00,,,0.00,WUHU216HW,2013-03-19 15:39:00,
2013-03-19 10:44:00,38.2,25.5,30.20,SW,225,1.6,1.8,60,0.00,,,0.00,WUHU216HW,2013-03-19 15:44:00,
2013-03-19 10:49:00,38.3,24.8,30.20,SSW,203,0.4,2.2,58,0.00,,,0.00,WUHU216HW,2013-03-19 15:49:00,
2013-03-19 10:54:00,38.5,24.9,30.21,WSW,248,1.6,2.2,58,0.00,,,0.00,WUHU216HW,2013-03-19 15:54:00,
2013-03-19 10:59:00,38.5,23.7,30.21,NW,315,1.1,1.6,55,0.00,,,0.00,WUHU216HW,2013-03-19 15:59:00,
2013-03-19 11:04:00,38.0,23.6,30.21,North,0,0.2,3.4,56,0.00,,,0.00,WUHU216HW,2013-03-19 16:04:00,
2013-03-19 11:09:00,38.0,24.0,30.21,West,270,2.0,3.4,57,0.00,,,0.00,WUHU216HW,2013-03-19 16:09:00,
2013-03-19 11:14:00,38.0,24.5,30.22,WNW,293,1.1,3.8,58,0.00,,,0.00,WUHU216HW,2013-03-19 16:14:00,
2013-03-19 11:19:00,37.8,24.8,30.22,WSW,248,0.7,3.8,59,0.00,,,0.00,WUHU216HW,2013-03-19 16:19:00,
2013-03-19 11:24:00,37.4,24.8,30.22,SW,225,2.2,5.6,60,0.00,,,0.00,WUHU216HW,2013-03-19 16:24:00,
2013-03-19 11:29:00,37.3,25.0,30.22,SSW,203,3.1,5.6,61,0.00,,,0.00,WUHU216HW,2013-03-19 16:29:00,
2013-03-19 11:34:00,37.3,25.5,30.22,SW,225,2.2,3.4,62,0.00,,,0.00,WUHU216HW,2013-03-19 16:34:00,
2013-03-19 11:39:00,37.3,25.8,30.22,SW,225,2.0,3.4,63,0.00,,,0.00,WUHU216HW,2013-03-19 16:39:00,
2013-03-19 11:44:00,37.6,26.6,30.23,South,180,2.2,3.4,64,0.00,,,0.00,WUHU216HW,2013-03-19 16:44:00,
2013-03-19 11:49:00,37.8,27.1,30.22,SSW,203,3.6,3.6,65,0.00,,,0.00,WUHU216HW,2013-03-19 16:49:00,
2013-03-19 11:54:00,37.8,27.5,30.22,WSW,248,2.7,3.6,66,0.00,,,0.00,WUHU216HW,2013-03-19 16:54:00,
2013-03-19 11:59:00,37.8,27.8,30.22,South,180,0.4,2.9,67,0.00,,,0.00,WUHU216HW,2013-03-19 16:59:00,
2013-03-19 12:04:00,38.2,28.2,30.22,West,270,0.2,2.5,67,0.00,,,0.00,WUHU216HW,2013-03-19 17:04:00,
2013-03-19 12:09:00,38.5,28.8,30.22,SW,225,0.4,3.1,68,0.00,,,0.00,WUHU216HW,2013-03-19 17:09:00,
2013-03-19 12:14:00,38.5,28.8,30.23,WSW,248,2.2,3.4,68,0.00,,,0.00,WUHU216HW,2013-03-19 17:14:00,
2013-03-19 12:19:00,38.9,29.2,30.23,SSW,203,4.0,4.0,68,0.00,,,0.00,WUHU216HW,2013-03-19 17:19:00,
2013-03-19 12:24:00,38.5,28.8,30.23,West,270,0.7,5.8,68,0.00,,,0.00,WUHU216HW,2013-03-19 17:24:00,
2013-03-19 12:29:00,38.5,28.8,30.22,SW,225,4.5,5.8,68,0.00,,,0.00,WUHU216HW,2013-03-19 17:29:00,
2013-03-19 12:34:00,38.5,29.3,30.23,South,180,1.8,4.5,69,0.00,,,0.00,WUHU216HW,2013-03-19 17:34:00,
2013-03-19 12:39:00,38.5,29.6,30.23,SW,225,4.0,4.3,70,0.00,,,0.00,WUHU216HW,2013-03-19 17:39:00,
2013-03-19 12:44:00,38.7,29.3,30.23,SW,225,2.0,4.3,69,0.00,,,0.00,WUHU216HW,2013-03-19 17:44:00,
2013-03-19 12:49:00,38.9,30.2,30.23,SW,225,4.9,4.9,71,0.00,,,0.00,WUHU216HW,2013-03-19 17:49:00,
2013-03-19 12:54:00,39.1,30.1,30.23,SSW,203,0.7,4.9,70,0.00,,,0.00,WUHU216HW,2013-03-19 17:54:00,
2013-03-19 12:59:00,39.2,30.6,30.23,SW,225,2.0,4.0,71,0.00,,,0.00,WUHU216HW,2013-03-19 17:59:00,
2013-03-19 13:04:00,39.2,30.6,30.23,SW,225,3.1,4.5,71,0.00,,,0.00,WUHU216HW,2013-03-19 18:04:00,
2013-03-19 13:09:00,39.1,30.4,30.23,WSW,248,6.5,6.5,71,0.00,,,0.00,WUHU216HW,2013-03-19 18:09:00,
2013-03-19 13:14:00,38.5,30.2,30.23,SW,225,2.7,6.5,72,0.00,,,0.00,WUHU216HW,2013-03-19 18:14:00,
2013-03-19 13:19:00,38.7,30.4,30.24,SW,225,3.1,7.6,72,0.00,,,0.00,WUHU216HW,2013-03-19 18:19:00,
2013-03-19 13:24:00,38.5,30.2,30.24,SW,225,4.0,7.6,72,0.00,,,0.00,WUHU216HW,2013-03-19 18:24:00,
2013-03-19 13:29:00,38.5,30.2,30.24,SW,225,2.7,6.7,72,0.00,,,0.00,WUHU216HW,2013-03-19 18:29:00,
2013-03-19 13:34:00,38.2,30.0,30.24,SW,225,3.8,5.4,72,0.00,,,0.00,WUHU216HW,2013-03-19 18:34:00,
2013-03-19 13:39:00,38.0,29.8,30.24,SSW,203,2.5,3.8,72,0.00,,,0.00,WUHU216HW,2013-03-19 18:39:00,
2013-03-19 13:44:00,38.2,30.0,30.24,SW,225,0.9,2.5,72,0.00,,,0.00,WUHU216HW,2013-03-19 18:44:00,
2013-03-19 13:49:00,38.2,30.0,30.24,NNE,23,1.8,2.0,72,0.00,,,0.00,WUHU216HW,2013-03-19 18:49:00,
2013-03-19 13:54:00,38.0,29.4,30.24,North,0,1.3,1.8,71,0.00,,,0.00,WUHU216HW,2013-03-19 18:54:00,
2013-03-19 13:59:00,37.6,29.4,30.24,NW,315,0.4,1.6,72,0.00,,,0.00,WUHU216HW,2013-03-19 18:59:00,
2013-03-19 14:04:00,37.4,29.6,30.24,West,270,0.2,1.3,73,0.00,,,0.00,WUHU216HW,2013-03-19 19:04:00,
2013-03-19 14:09:00,37.3,29.4,30.23,SW,225,0.9,1.1,73,0.01,,,0.00,WUHU216HW,2013-03-19 19:09:00,
2013-03-19 14:14:00,37.4,29.9,30.23,SSW,203,0.9,1.8,74,0.01,,,0.00,WUHU216HW,2013-03-19 19:14:00,
2013-03-19 14:19:00,37.8,30.2,30.23,SW,225,0.0,3.1,74,0.01,,,0.00,WUHU216HW,2013-03-19 19:19:00,
2013-03-19 14:24:00,38.2,31.0,30.23,WSW,248,1.1,3.4,75,0.01,,,0.00,WUHU216HW,2013-03-19 19:24:00,
2013-03-19 14:29:00,38.0,30.8,30.23,SW,225,0.4,3.4,75,0.01,,,0.00,WUHU216HW,2013-03-19 19:29:00,
2013-03-19 14:34:00,38.2,31.2,30.22,SSW,203,2.7,2.9,76,0.01,,,0.00,WUHU216HW,2013-03-19 19:34:00,
2013-03-19 14:39:00,38.2,31.0,30.22,SSW,203,1.8,2.7,75,0.01,,,0.00,WUHU216HW,2013-03-19 19:39:00,
2013-03-19 14:44:00,38.3,31.4,30.22,SW,225,1.8,2.5,76,0.01,,,0.00,WUHU216HW,2013-03-19 19:44:00,
2013-03-19 14:49:00,38.5,32.0,30.22,WSW,248,1.3,2.7,77,0.01,,,0.00,WUHU216HW,2013-03-19 19:49:00,
2013-03-19 14:54:00,38.7,32.1,30.22,SW,225,0.9,2.9,77,0.01,,,0.00,WUHU216HW,2013-03-19 19:54:00,
2013-03-19 14:59:00,38.9,32.3,30.22,SW,225,0.7,3.6,77,0.01,,,0.00,WUHU216HW,2013-03-19 19:59:00,
2013-03-19 15:04:00,39.1,32.1,30.22,SSW,203,2.5,3.6,76,0.00,,,0.00,WUHU216HW,2013-03-19 20:04:00,
2013-03-19 15:09:00,39.1,32.1,30.22,WSW,248,0.9,3.6,76,0.00,,,0.00,WUHU216HW,2013-03-19 20:09:00,
2013-03-19 15:14:00,38.9,32.3,30.22,WSW,248,4.5,4.5,77,0.00,,,0.00,WUHU216HW,2013-03-19 20:14:00,
2013-03-19 15:19:00,38.7,32.1,30.22,WSW,248,3.1,4.5,77,0.00,,,0.00,WUHU216HW,2013-03-19 20:19:00,
2013-03-19 15:24:00,38.7,32.1,30.21,WSW,248,1.1,3.1,77,0.00,,,0.00,WUHU216HW,2013-03-19 20:24:00,
2013-03-19 15:29:00,38.7,32.1,30.21,WNW,293,0.4,3.6,77,0.01,,,0.00,WUHU216HW,2013-03-19 20:29:00,
2013-03-19 15:34:00,38.9,32.3,30.22,WNW,293,0.4,3.6,77,0.01,,,0.02,WUHU216HW,2013-03-19 20:34:00,
2013-03-19 15:39:00,39.1,32.5,30.22,WSW,248,0.2,2.5,77,0.01,,,0.02,WUHU216HW,2013-03-19 20:39:00,
2013-03-19 15:44:00,39.1,32.5,30.22,WSW,248,0.0,2.0,77,0.01,,,0.02,WUHU216HW,2013-03-19 20:44:00,
2013-03-19 15:49:00,39.2,32.7,30.22,WSW,248,2.7,3.4,77,0.01,,,0.02,WUHU216HW,2013-03-19 20:49:00,
2013-03-19 15:54:00,39.1,32.5,30.22,SW,225,1.6,3.4,77,0.01,,,0.02,WUHU216HW,2013-03-19 20:54:00,
2013-03-19 15:59:00,38.9,32.3,30.22,SW,225,1.6,2.7,77,0.01,,,0.02,WUHU216HW,2013-03-19 20:59:00,
2013-03-19 16:04:00,38.9,32.3,30.22,West,270,0.2,2.5,77,0.01,,,0.02,WUHU216HW,2013-03-19 21:04:00,
2013-03-19 16:09:00,38.9,32.3,30.22,WSW,248,1.3,1.3,77,0.01,,,0.02,WUHU216HW,2013-03-19 21:09:00,
2013-03-19 16:14:00,39.1,32.5,30.22,WSW,248,1.1,1.3,77,0.01,,,0.02,WUHU216HW,2013-03-19 21:14:00,
2013-03-19 16:19:00,38.9,32.3,30.22,WNW,293,1.6,1.6,77,0.02,,,0.02,WUHU216HW,2013-03-19 21:19:00,
2013-03-19 16:24:00,39.1,32.8,30.22,SW,225,2.0,3.1,78,0.01,,,0.02,WUHU216HW,2013-03-19 21:24:00,
2013-03-19 16:29:00,39.1,32.8,30.22,SSW,203,2.5,3.1,78,0.01,,,0.02,WUHU216HW,2013-03-19 21:29:00,
2013-03-19 16:34:00,39.2,32.9,30.22,WSW,248,1.6,2.7,78,0.01,,,0.02,WUHU216HW,2013-03-19 21:34:00,
2013-03-19 16:39:00,39.4,33.5,30.22,WNW,293,0.0,2.7,79,0.01,,,0.02,WUHU216HW,2013-03-19 21:39:00,
2013-03-19 16:44:00,39.2,33.3,30.22,SSW,203,0.9,2.9,79,0.01,,,0.02,WUHU216HW,2013-03-19 21:44:00,
2013-03-19 16:49:00,39.4,33.5,30.22,WSW,248,1.6,3.8,79,0.01,,,0.02,WUHU216HW,2013-03-19 21:49:00,
2013-03-19 16:54:00,39.6,33.7,30.21,South,180,1.3,3.8,79,0.01,,,0.02,WUHU216HW,2013-03-19 21:54:00,
2013-03-19 16:59:00,39.8,33.9,30.21,SSW,203,2.2,4.5,79,0.01,,,0.02,WUHU216HW,2013-03-19 21:59:00,
2013-03-19 17:04:00,40.0,33.9,30.21,WSW,248,4.0,4.7,79,0.01,,,0.02,WUHU216HW,2013-03-19 22:04:00,
2013-03-19 17:09:00,39.8,33.9,30.20,WSW,248,2.5,6.0,79,0.01,,,0.02,WUHU216HW,2013-03-19 22:09:00,
2013-03-19 17:14:00,40.0,33.9,30.20,South,180,5.6,6.0,79,0.00,,,0.02,WUHU216HW,2013-03-19 22:14:00,
2013-03-19 17:19:00,40.0,33.9,30.20,SW,225,1.8,5.6,79,0.00,,,0.02,WUHU216HW,2013-03-19 22:19:00,
2013-03-19 17:24:00,40.3,34.7,30.20,SW,225,2.9,4.7,80,0.00,,,0.02,WUHU216HW,2013-03-19 22:24:00,
2013-03-19 17:29:00,40.5,34.5,30.20,SSW,203,3.4,4.0,79,0.00,,,0.02,WUHU216HW,2013-03-19 22:29:00,
2013-03-19 17:34:00,40.7,34.7,30.20,SW,225,3.6,4.0,79,0.00,,,0.02,WUHU216HW,2013-03-19 22:34:00,
2013-03-19 17:39:00,40.7,34.7,30.20,SW,225,1.3,4.3,79,0.00,,,0.02,WUHU216HW,2013-03-19 22:39:00,
2013-03-19 17:44:00,40.7,34.7,30.20,SW,225,0.0,4.3,79,0.00,,,0.02,WUHU216HW,2013-03-19 22:44:00,
2013-03-19 17:49:00,40.7,34.7,30.20,WSW,248,0.2,1.8,79,0.00,,,0.02,WUHU216HW,2013-03-19 22:49:00,
2013-03-19 17:54:00,40.7,34.7,30.20,SW,225,2.5,2.5,79,0.00,,,0.02,WUHU216HW,2013-03-19 22:54:00,
2013-03-19 17:59:00,40.7,34.7,30.20,WSW,248,3.4,3.4,79,0.00,,,0.02,WUHU216HW,2013-03-19 22:59:00,
2013-03-19 18:04:00,40.7,34.7,30.19,SW,225,1.6,3.4,79,0.00,,,0.02,WUHU216HW,2013-03-19 23:04:00,
2013-03-19 18:09:00,40.7,34.7,30.19,WSW,248,0.9,3.4,79,0.00,,,0.02,WUHU216HW,2013-03-19 23:09:00,
2013-03-19 18:14:00,40.9,34.8,30.20,WSW,248,1.3,2.5,79,0.00,,,0.02,WUHU216HW,2013-03-19 23:14:00,
2013-03-19 18:19:00,41.0,34.9,30.20,WSW,248,1.8,2.5,79,0.00,,,0.02,WUHU216HW,2013-03-19 23:19:00,
2013-03-19 18:24:00,41.4,35.3,30.19,West,270,2.5,2.5,79,0.00,,,0.02,WUHU216HW,2013-03-19 23:24:00,
2013-03-19 18:29:00,41.4,35.0,30.19,SW,225,0.0,2.5,78,0.00,,,0.02,WUHU216HW,2013-03-19 23:29:00,
2013-03-19 18:34:00,41.6,35.2,30.20,WSW,248,1.3,2.5,78,0.00,,,0.02,WUHU216HW,2013-03-19 23:34:00,
2013-03-19 18:39:00,41.4,34.7,30.20,WSW,248,0.2,1.8,77,0.00,,,0.02,WUHU216HW,2013-03-19 23:39:00,
2013-03-19 18:44:00,41.4,34.7,30.20,SW,225,0.0,2.2,77,0.00,,,0.02,WUHU216HW,2013-03-19 23:44:00,
2013-03-19 18:49:00,41.4,34.7,30.20,SSW,203,0.4,2.2,77,0.00,,,0.02,WUHU216HW,2013-03-19 23:49:00,
2013-03-19 18:54:00,41.2,34.5,30.19,WSW,248,0.2,1.8,77,0.00,,,0.02,WUHU216HW,2013-03-19 23:54:00,
2013-03-19 18:59:00,41.2,34.5,30.20,SE,135,0.0,1.8,77,0.00,,,0.02,WUHU216HW,2013-03-19 23:59:00,
2013-03-19 19:04:00,41.0,34.3,30.20,WNW,293,0.0,1.8,77,0.00,,,0.02,WUHU216HW,2013-03-20 00:04:00,
2013-03-19 19:09:00,41.0,34.3,30.20,West,270,0.0,0.9,77,0.00,,,0.02,WUHU216HW,2013-03-20 00:09:00,
2013-03-19 19:14:00,41.0,34.3,30.20,NW,315,0.0,0.0,77,0.00,,,0.02,WUHU216HW,2013-03-20 00:14:00,
2013-03-19 19:19:00,40.9,34.1,30.20,NNW,338,0.4,0.9,77,0.00,,,0.02,WUHU216HW,2013-03-20 00:19:00,
2013-03-19 19:24:00,40.5,33.9,30.20,WNW,293,0.0,0.9,77,0.00,,,0.02,WUHU216HW,2013-03-20 00:24:00,
2013-03-19 19:29:00,40.3,33.7,30.20,WSW,248,0.9,0.9,77,0.00,,,0.02,WUHU216HW,2013-03-20 00:29:00,
2013-03-19 19:34:00,40.0,33.3,30.20,West,270,0.0,0.9,77,0.00,,,0.02,WUHU216HW,2013-03-20 00:34:00,
2013-03-19 19:39:00,39.6,32.9,30.20,NW,315,0.4,0.4,77,0.00,,,0.02,WUHU216HW,2013-03-20 00:39:00,
2013-03-19 19:44:00,39.2,32.7,30.20,NW,315,0.0,0.4,77,0.00,,,0.02,WUHU216HW,2013-03-20 00:44:00,
2013-03-19 19:49:00,39.1,32.5,30.20,NW,315,0.0,0.0,77,0.00,,,0.02,WUHU216HW,2013-03-20 00:49:00,
2013-03-19 19:54:00,38.5,32.0,30.20,WSW,248,0.0,0.0,77,0.00,,,0.02,WUHU216HW,2013-03-20 00:54:00,
2013-03-19 19:59:00,38.2,31.2,30.20,WSW,248,0.0,0.0,76,0.00,,,0.02,WUHU216HW,2013-03-20 00:59:00,
2013-03-19 20:04:00,37.8,30.9,30.20,WSW,248,0.0,0.0,76,0.00,,,0.02,WUHU216HW,2013-03-20 01:04:00,
2013-03-19 20:09:00,37.3,30.4,30.20,SW,225,1.1,1.8,76,0.00,,,0.02,WUHU216HW,2013-03-20 01:09:00,
2013-03-19 20:14:00,36.9,30.1,30.20,WSW,248,0.4,1.8,76,0.00,,,0.02,WUHU216HW,2013-03-20 01:14:00,
2013-03-19 20:19:00,36.4,29.8,30.21,SW,225,0.0,1.8,77,0.00,,,0.02,WUHU216HW,2013-03-20 01:19:00,
2013-03-19 20:24:00,36.2,29.6,30.21,SW,225,1.1,1.1,77,0.00,,,0.02,WUHU216HW,2013-03-20 01:24:00,
2013-03-19 20:29:00,35.8,29.3,30.21,SW,225,1.1,1.8,77,0.00,,,0.02,WUHU216HW,2013-03-20 01:29:00,
2013-03-19 20:34:00,35.5,28.9,30.21,SW,225,1.1,1.8,77,0.00,,,0.02,WUHU216HW,2013-03-20 01:34:00,
2013-03-19 20:39:00,34.9,28.7,30.21,WSW,248,1.3,2.2,78,0.00,,,0.02,WUHU216HW,2013-03-20 01:39:00,
2013-03-19 20:44:00,34.6,28.4,30.22,SW,225,0.9,2.2,78,0.00,,,0.02,WUHU216HW,2013-03-20 01:44:00,
2013-03-19 20:49:00,34.4,28.2,30.22,SW,225,0.0,1.8,78,0.00,,,0.02,WUHU216HW,2013-03-20 01:49:00,
2013-03-19 20:54:00,34.2,28.0,30.22,SW,225,1.3,1.3,78,0.00,,,0.02,WUHU216HW,2013-03-20 01:54:00,
2013-03-19 20:59:00,33.8,27.9,30.22,SW,225,1.8,1.8,79,0.00,,,0.02,WUHU216HW,2013-03-20 01:59:00,
2013-03-19 21:04:00,33.5,27.6,30.22,SW,225,2.0,2.2,79,0.00,,,0.02,WUHU216HW,2013-03-20 02:04:00,
2013-03-19 21:09:00,33.1,27.6,30.22,SSW,203,0.9,2.7,80,0.00,,,0.02,WUHU216HW,2013-03-20 02:09:00,
2013-03-19 21:14:00,32.9,27.5,30.22,South,180,1.1,2.7,80,0.00,,,0.02,WUHU216HW,2013-03-20 02:14:00,
2013-03-19 21:19:00,32.9,27.5,30.22,SW,225,1.8,1.8,80,0.00,,,0.02,WUHU216HW,2013-03-20 02:19:00,
2013-03-19 21:24:00,32.8,27.3,30.22,SW,225,0.7,1.8,80,0.00,,,0.02,WUHU216HW,2013-03-20 02:24:00,
2013-03-19 21:29:00,32.8,27.3,30.22,SW,225,1.3,2.5,80,0.00,,,0.02,WUHU216HW,2013-03-20 02:29:00,
2013-03-19 21:34:00,32.8,27.3,30.23,SSW,203,0.0,2.5,80,0.00,,,0.02,WUHU216HW,2013-03-20 02:34:00,
2013-03-19 21:39:00,32.6,27.1,30.24,SSW,203,0.0,0.4,80,0.00,,,0.02,WUHU216HW,2013-03-20 02:39:00,
2013-03-19 21:44:00,32.4,27.0,30.24,SSW,203,0.0,0.2,80,0.00,,,0.02,WUHU216HW,2013-03-20 02:44:00,
2013-03-19 21:49:00,32.4,27.0,30.24,WSW,248,1.8,1.8,80,0.00,,,0.02,WUHU216HW,2013-03-20 02:49:00,
2013-03-19 21:54:00,32.6,27.5,30.24,SW,225,0.7,1.8,81,0.00,,,0.02,WUHU216HW,2013-03-20 02:54:00,
2013-03-19 21:59:00,32.6,27.5,30.23,SW,225,1.3,1.8,81,0.00,,,0.02,WUHU216HW,2013-03-20 02:59:00,
2013-03-19 22:04:00,32.6,27.7,30.23,SW,225,0.0,2.0,82,0.00,,,0.02,WUHU216HW,2013-03-20 03:04:00,
2013-03-19 22:09:00,32.6,27.7,30.23,SW,225,0.7,2.0,82,0.00,,,0.02,WUHU216HW,2013-03-20 03:09:00,
2013-03-19 22:14:00,32.8,27.9,30.23,WSW,248,0.9,1.1,82,0.00,,,0.02,WUHU216HW,2013-03-20 03:14:00,
2013-03-19 22:19:00,32.8,27.5,30.23,SW,225,2.0,2.7,81,0.00,,,0.02,WUHU216HW,2013-03-20 03:19:00,
2013-03-19 22:24:00,32.8,27.5,30.23,SW,225,2.2,2.7,81,0.00,,,0.02,WUHU216HW,2013-03-20 03:24:00,
2013-03-19 22:29:00,32.6,27.5,30.23,WSW,248,0.2,2.7,81,0.00,,,0.02,WUHU216HW,2013-03-20 03:29:00,
2013-03-19 22:34:00,32.6,27.5,30.23,SSE,158,0.4,2.5,81,0.00,,,0.02,WUHU216HW,2013-03-20 03:34:00,
2013-03-19 22:39:00,32.8,27.5,30.23,SSW,203,0.0,1.3,81,0.00,,,0.02,WUHU216HW,2013-03-20 03:39:00,
2013-03-19 22:44:00,32.8,27.5,30.23,SSW,203,0.0,1.3,81,0.00,,,0.02,WUHU216HW,2013-03-20 03:44:00,
2013-03-19 22:49:00,32.8,27.5,30.23,SW,225,0.9,1.1,81,0.00,,,0.02,WUHU216HW,2013-03-20 03:49:00,
2013-03-19 22:54:00,32.8,27.5,30.23,SW,225,0.0,1.1,81,0.00,,,0.02,WUHU216HW,2013-03-20 03:54:00,
2013-03-19 22:59:00,32.6,27.5,30.23,SW,225,0.0,0.0,81,0.00,,,0.02,WUHU216HW,2013-03-20 03:59:00,
2013-03-19 23:00:00,32.8,27.5,30.23,SW,225,0.0,0.0,81,0.00,,,0.02,WUHU216HW,2013-03-20 04:00:00,
2013-03-19 23:05:00,32.6,27.5,30.23,SW,225,1.3,1.6,81,0.00,,,0.02,WUHU216HW,2013-03-20 04:05:00,
2013-03-19 23:10:00,32.4,27.3,30.22,SW,225,0.4,1.6,81,0.00,,,0.02,WUHU216HW,2013-03-20 04:10:00,
2013-03-19 23:15:00,32.2,27.1,30.22,SW,225,0.7,1.3,81,0.00,,,0.02,WUHU216HW,2013-03-20 04:15:00,
2013-03-19 23:20:00,32.0,26.9,30.22,SSW,203,0.7,1.8,81,0.00,,,0.02,WUHU216HW,2013-03-20 04:20:00,
2013-03-19 23:25:00,31.9,26.7,30.22,SSW,203,1.1,1.8,81,0.00,,,0.02,WUHU216HW,2013-03-20 04:25:00,
2013-03-19 23:30:00,31.7,26.6,30.22,SSW,203,0.4,1.1,81,0.00,,,0.02,WUHU216HW,2013-03-20 04:30:00,
2013-03-19 23:35:00,31.5,26.4,30.22,SSW,203,0.7,1.1,81,0.00,,,0.02,WUHU216HW,2013-03-20 04:35:00,
2013-03-19 23:40:00,31.3,26.2,30.22,SSW,203,1.1,1.3,81,0.00,,,0.02,WUHU216HW,2013-03-20 04:40:00,
2013-03-19 23:45:00,31.1,26.0,30.22,SSW,203,1.8,1.8,81,0.00,,,0.02,WUHU216HW,2013-03-20 04:45:00,
2013-03-19 23:50:00,31.0,25.8,30.22,SSW,203,1.6,1.8,81,0.00,,,0.02,WUHU216HW,2013-03-20 04:50:00,
2013-03-19 23:55:00,31.0,25.8,30.22,SW,225,1.1,1.8,81,0.00,,,0.02,WUHU216HW,2013-03-20 04:55:00,